Regional Weather Roundup
Issued by NWS

Home | Current Version | Previous Version | Graphics & Text | Print | Product List | Glossary On
Versions: 1 2 3 4 5 6 7 8 9 10 11 12 13 14 15 16 17 18 19 20 21 22 23 24 25 26 27 28 29 30 31 32 33 34 35 36 37 38 39 40 41 42 43 44 45 46 47 48 49 50
000
ASUS43 KDTX 272101
RWRMI
MICHIGAN HOURLY REGIONAL WEATHER ROUNDUP
NATIONAL WEATHER SERVICE DETROIT/PONTIAC MI
400 PM EST SAT DEC 27 2014

NOTE: "FAIR" INDICATES FEW OR NO CLOUDS BELOW 12,000 FEET WITH NO
SIGNIFICANT WEATHER AND/OR OBSTRUCTION TO VISIBILITY.

MIZ047>049-052>055-059>063-066>070-074>076-081>083-272200-
SOUTHEAST LOWER MICHIGAN

CITY           SKY/WX    TMP DP  RH WIND       PRES   REMARKS
ADRIAN         CLOUDY    47  44  90 SW15      29.94F
ALMA           LGT RAIN  47  45  93 SW10G24   29.83F
ANN ARBOR      CLOUDY    47  45  93 SW14      29.93F
BAD AXE        CLOUDY    48  46  91 SW16G24   29.84S
CARO           CLOUDY    49  44  84 SW16G23   29.85S
DETROIT CITY   CLOUDY    49  44  83 SW15G25   29.94R
DETROIT        CLOUDY    48  45  89 S16G25    29.96S
FLINT          CLOUDY    50  44  80 SW12G25   29.89S
GROSSE ILE     CLOUDY    48  45  87 SW13G18   29.96S
HILLSDALE      CLOUDY    47  47 100 SW13G20   29.95R FOG
HOWELL         CLOUDY    47  45  92 SW10G22   29.88F

CITY           SKY/WX    TMP DP  RH WIND       PRES   REMARKS
JACKSON        CLOUDY    47  44  90 SW15      29.92S
LAMBERTVILLE   CLOUDY    48  43  81 SW14G22   29.99S
LANSING        CLOUDY    48  44  86 SW17G25   29.89S
LAPEER         CLOUDY    47  43  85 SW15G22   29.89F
MASON          CLOUDY    46  43  89 SW12G18   29.91S
MONROE         CLOUDY    48  45  87 SW13G18   29.96F
MT. CLEMENS    DRIZZLE   47  45  91 SW14      29.91F FOG
PONTIAC        CLOUDY    46  44  93 SW13G22   29.90F
PORT HOPE        N/A     50  43  77 SW14G30   29.79F
PORT HURON     CLOUDY    45  45 100 S12       29.92S
TRI CITIES     CLOUDY    50  44  80 SW18G31   29.84F
TROY           CLOUDY    48  45  89 SW8G21    29.94F
SAGINAW HB     CLOUDY    48  46  93 SW18G24   29.85S
$$
MIZ043>046-050>051-056>058-064>065-071>073-077>080-272200-
SOUTHWEST LOWER MICHIGAN

CITY           SKY/WX    TMP DP  RH WIND       PRES   REMARKS
BATTLE CREEK   CLOUDY    48  45  89 SW15G25   29.92S
BENTON HARBOR  CLOUDY    39  35  86 W23G36    30.01R WCI  28
BIG RAPIDS     CLOUDY    44  40  86 SW17G32   29.82R
COLDWATER      CLOUDY    46  45  95 SW13G22   29.95R FOG
FREMONT        CLOUDY    40  36  85 W20G29    29.88R WCI  31
HOLLAND        CLOUDY    42  34  73 W25G38    29.96R
GRAND RAPIDS   LGT RAIN  43  40  89 W24G41    29.92R
IONIA          RAIN      48  46  91 SW16G26   29.84F
KALAMAZOO      LGT RAIN  48  44  86 SW16G22   29.93R
MARSHALL       CLOUDY    46  45  95 SW12G22   29.91S
MOUNT PLEASANT LGT RAIN  47  45  91 SW14G22   29.80F
MUSKEGON       CLOUDY    41  34  76 W16G31    29.94R
SOUTH HAVEN    CLOUDY    40  34  79 W21G28    29.99R WCI  31
$$
MIZ016>042-272200-
NORTHERN LOWER MICHIGAN

CITY           SKY/WX    TMP DP  RH WIND       PRES   REMARKS
ALPENA         CLOUDY    47  43  86 SW10G21   29.70F
BEAVER ISLAND  CLOUDY    33  33  97 NW8       29.75R FOG     WCI  26
BELLAIRE       CLOUDY    41  38  89 SW14G21   29.75R FOG
CADILLAC       DRIZZLE   41  39  94 SW20G29   29.77R
CHARLEVOIX     CLOUDY    39  38  98 W15G25    29.76R WCI  31
FRANKFORT      CLOUDY    38  37  94 W12G22    29.81R FOG     WCI  31
GAYLORD        LGT RAIN  40  38  93 W17G28    29.71R FOG     WCI  31
GRAYLING       DRIZZLE   46  43  91 SW10G20   29.72S
HARBOR SPRINGS CLOUDY    39  38  95 SW13G22   29.71R WCI  32
HOUGHTON LAKE  LGT RAIN  44  41  89 SW14G25   29.74S FOG
MANISTEE       CLOUDY    39  34  81 W20G30    29.84R WCI  30
OSCODA         LGT RAIN  48  44  87 SW16G29   29.74F
PELLSTON       CLOUDY    41  38  89 SW15      29.70R
ROGERS CITY    RAIN      45  44  97 W9G16     29.70R
TRAVERSE CITY  CLOUDY    42  37  82 SW15G32   29.75R
$$
MIZ007>008-015-272200-
EASTERN UPPER MICHIGAN

CITY           SKY/WX    TMP DP  RH WIND       PRES   REMARKS
KINROSS        CLOUDY    34  34 100 NW14      29.69R WCI  24
MACKINAC ISLAN MIX PCPN  35  35 100 NW12      29.70R WCI  26
NEWBERRY       LGT SNOW  31  31 100 NW10      29.74R WCI  22
S. S. MARIE    LGT RAIN  33  32  96 W8        29.67R WCI  26
MUNISING         N/A     34  28  79 N20       29.81R WCI  23
$$
MIZ004>006-011>014-085-272200-
CENTRAL UPPER MICHIGAN

CITY           SKY/WX    TMP DP  RH WIND       PRES   REMARKS
MANISTIQUE     FLURRIES  32  32  97 N14G23    29.77R WCI  22
ESCANABA       CLOUDY    34  28  80 NW7       29.82R WCI  28
MENOMINEE      CLOUDY    34  30  86 NW7       29.85R WCI  28
SAWYER-GWINN   LGT SNOW  30  27  86 N12       29.81R WCI  21
$$
MIZ001>003-009>011-084-272200-
WESTERN UPPER MICHIGAN

CITY           SKY/WX    TMP DP  RH WIND       PRES   REMARKS
IRON MOUNTAIN    N/A     31  26  82 NW7       29.85R WCI  24
HOUGHTON       CLOUDY    27  22  81 NW10      29.86R WCI  17
COPPER HARBOR    N/A     30  23  75 N17       29.86R WCI  18
IRONWOOD       CLOUDY    23  23 100 W9        29.92R WCI  13
$$

ABBREVIATIONS USED IN REMARKS
   TC - TEMPERATURE IN CELSIUS
  WCI - WIND CHILL INDEX
   HX - HEAT INDEX
  VSB - VISIBILITY



USA.gov is the U.S. government's official web portal to all federal, state and local government web resources and services.